This is the latest recevied weather packets stored in our database for station/object WB9TLH-11. If no packets are shown the sender has not sent any weather packets the latest 10 day(s).
| Time | Temp. | Humidity | Pressure | Rain* | Wind** | Luminosity | Snow |
|---|---|---|---|---|---|---|---|
| 1777884355 | 12.78° C | 68% | 1009.9 hPa | 0 mm | - | - | - |
| 1777884055 | 12.78° C | 66% | 1009.8 hPa | 0 mm | - | - | - |
| 1777883755 | 13.33° C | 63% | 1010 hPa | 0 mm | - | - | - |
| 1777883455 | 13.33° C | 59% | 1009.9 hPa | 0 mm | - | - | - |
| 1777883155 | 13.89° C | 58% | 1010.3 hPa | 0 mm | - | - | - |
| 1777882855 | 13.89° C | 56% | 1010.4 hPa | 0 mm | - | - | - |
| 1777882555 | 13.89° C | 55% | 1010.4 hPa | 0 mm | - | - | - |
| 1777882255 | 13.89° C | 55% | 1010.2 hPa | 0 mm | - | - | - |
| 1777881955 | 13.33° C | 56% | 1010.1 hPa | 0 mm | - | - | - |
| 1777881655 | 13.33° C | 56% | 1009.8 hPa | 0 mm | - | - | - |
| 1777881530 | 13.33° C | 56% | 1009.8 hPa | 0 mm | - | - | - |
| 1777881355 | 13.33° C | 56% | 1009.8 hPa | 0 mm | - | - | - |
| 1777881055 | 12.78° C | 56% | 1009.7 hPa | 0 mm | - | - | - |
| 1777880755 | 12.78° C | 56% | 1009.8 hPa | 0 mm | - | - | - |
| 1777880455 | 12.78° C | 57% | 1009.8 hPa | 0 mm | - | - | - |
| 1777880155 | 12.78° C | 57% | 1009.8 hPa | 0 mm | - | - | - |
| 1777879855 | 12.78° C | 58% | 1009.8 hPa | 0 mm | - | - | - |
| 1777879555 | 12.78° C | 57% | 1009.9 hPa | 0 mm | - | - | - |
| 1777879255 | 12.78° C | 57% | 1009.9 hPa | 0 mm | - | - | - |
| 1777878955 | 12.78° C | 57% | 1009.9 hPa | 0 mm | - | - | - |
| 1777878655 | 12.78° C | 56% | 1009.9 hPa | 0 mm | - | - | - |
| 1777878355 | 12.78° C | 56% | 1009.9 hPa | 0 mm | - | - | - |
| 1777878055 | 12.78° C | 56% | 1010.1 hPa | 0 mm | - | - | - |
| 1777877755 | 12.78° C | 56% | 1010.2 hPa | 0 mm | - | - | - |
| 1777877455 | 12.78° C | 56% | 1010.2 hPa | 0 mm | - | - | - |
* Rain latest hour (hover to see other rain measurements)
** Current wind speed in m/s (hover to see current wind gust speed)